GW3895 Weather Reports


Display with metric or nautical units.
time (UTC)temp
F
wind
direction
speed
MPH
gust
MPH
rain 1hr
in
rain 24hr
in
rain mn
in
humidity
%
barometer
mb
20260505060922 60 347 3.0 5.0 0.00 0.00 0.00 49 1009.7
20260505055417 58 347 1.0 4.0 0.00 0.00 0.00 52 1009.7
20260505053915 58 347 0.0 2.0 0.00 0.00 0.00 52 1009.7
20260505052412 59 347 0.0 0.0 0.00 0.00 0.00 51 1009.7
20260505050910 59 347 0.0 1.0 0.00 0.00 0.00 50 1009.7
20260505040855 64 358 4.0 7.0 0.00 0.00 0.00 41 1009.0
20260505035351 64 353 4.0 7.0 0.00 0.00 0.00 40 1009.0
20260505033848 64 349 4.0 8.0 0.00 0.00 0.00 39 1008.5
20260505032345 65 2 3.0 8.0 0.00 0.00 0.00 38 1008.5
20260505030842 65 357 2.0 6.0 0.00 0.00 0.00 37 1008.2
20260505025343 66 309 0.0 5.0 0.00 0.00 0.00 36 1008.2
20260505023841 66 275 0.0 4.0 0.00 0.00 0.00 36 1007.9
20260505022338 67 284 2.0 5.0 0.00 0.00 0.00 33 1007.9
20260505020834 68 325 1.0 6.0 0.00 0.00 0.00 32 1007.9
20260505015329 68 342 1.0 7.0 0.00 0.00 0.00 32 1007.9
20260505013826 69 356 1.0 5.0 0.00 0.00 0.00 32 1007.9
20260505012325 68 355 2.0 7.0 0.00 0.00 0.00 33 1007.4
20260505010825 68 356 4.0 8.0 0.00 0.00 0.00 32 1007.4
20260505005320 70 349 2.0 9.0 0.00 0.00 0.00 32 1007.1
20260505003817 69 348 2.0 6.0 0.00 0.00 0.00 32 1007.4
20260505002313 69 349 0.0 4.0 0.00 0.00 0.00 32 1007.4
20260505000811 70 20 2.0 7.0 0.00 0.00 0.00 32 1007.4
20260504235308 70 27 1.0 4.0 0.00 0.00 0.00 33 1007.1
20260504233805 70 6 1.0 6.0 0.00 0.00 0.00 33 1007.1
20260504232300 71 21 3.0 11.0 0.00 0.00 0.00 32 1007.1
20260504230755 74 83 2.0 7.0 0.00 0.00 0.00 30 1006.6
20260504225254 74 103 2.0 12.0 0.00 0.00 0.00 30 1006.6
20260504223751 77 171 2.0 8.0 0.00 0.00 0.00 28 1007.1
20260504222246 76 353 1.0 6.0 0.00 0.00 0.00 30 1007.1
20260504220743 75 197 0.0 5.0 0.00 0.00 0.00 30 1007.4
20260504215239 76 177 2.0 13.0 0.00 0.00 0.00 30 1007.1
20260504213735 77 174 1.0 7.0 0.00 0.00 0.00 29 1007.4
20260504212231 73 107 2.0 15.0 0.00 0.00 0.00 32 1007.9
20260504210728 73 135 2.0 7.0 0.00 0.00 0.00 31 1007.9
20260504205225 77 166 1.0 6.0 0.00 0.00 0.00 26 1007.9
20260504203720 74 145 1.0 7.0 0.00 0.00 0.00 30 1007.9
20260504202220 75 189 1.0 5.0 0.00 0.00 0.00 30 1008.2
20260504200718 75 203 1.0 12.0 0.00 0.00 0.00 28 1008.2
20260504195218 77 134 4.0 10.0 0.00 0.00 0.00 28 1007.9
20260504193714 76 192 2.0 6.0 0.00 0.00 0.00 29 1008.2
20260504192213 71 159 1.0 5.0 0.00 0.00 0.00 29 1008.5
20260504190709 71 8 0.0 3.0 0.00 0.00 0.00 29 1009.0
20260504185205 74 109 1.0 7.0 0.00 0.00 0.00 26 1008.5
20260504183659 73 84 2.0 10.0 0.00 0.00 0.00 26 1008.5
20260504182157 74 55 1.0 6.0 0.00 0.00 0.00 27 1008.5
20260504180657 73 93 1.0 9.0 0.00 0.00 0.00 28 1009.0
20260504175154 73 143 1.0 8.0 0.00 0.00 0.00 28 1009.0
20260504173652 72 114 0.0 5.0 0.00 0.00 0.00 28 1009.0
20260504172148 71 187 0.0 5.0 0.00 0.00 0.00 29 1009.0
20260504170644 70 349 1.0 4.0 0.00 0.00 0.00 31 1009.0
20260504150624 62 346 2.0 5.0 0.00 0.00 0.00 37 1010.1
20260504140609 61 346 2.0 5.0 0.00 0.00 0.00 38 1010.1
20260504130556 57 346 0.0 1.0 0.00 0.00 0.00 41 1009.7
20260504110531 60 341 2.0 6.0 0.00 0.00 0.00 39 1009.7
20260504100528 61 12 4.0 8.0 0.00 0.00 0.00 38 1010.1
20260504080504 59 355 0.0 0.0 0.00 0.00 0.00 44 1010.5